[[{"header":{"parameterUnit":"m.s-1","parameterCategory":1,"la1":30.2991,"la2":30.254,"lo1":-89.0895,"lo2":-89.0444,"dy":0.0017,"dx":0.0017,"nx":28,"ny":28,"refTime":"2024-11-28T03:00:00:Z","depth":0,"parameterNumber":2,"parameterNumberName":"U-component_of_WINDS"},"data":[0,0,0,0,0,0,0,0,0,0,0,0,0,0,0,0,0,0,0,0,0,0,0,0,0,0,0,0,0,0,0,0,0,0,0,0,0,0,0,0,0,0,0,0,0,0,0,0,0,0,0,0,0,0,0,0,0,0,-0.3659,-0.3658,0,-0.3548,-0.3547,-0.3545,-0.3503,-0.3503,-0.3504,-0.3504,-0.3391,-0.3388,-0.3385,0,0,0,0,0,0,0,0,0,0,0,0,0,-0.3835,-0.3832,-0.3659,-0.3658,-0.3656,-0.3548,-0.3547,-0.3545,-0.3503,-0.3503,-0.3504,-0.3504,-0.3392,-0.3388,-0.3384,0,0,0,0,0,0,0,0,0,0,0,0,0,-0.3744,-0.3831,-0.3659,-0.3622,-0.3618,-0.3548,-0.3546,-0.3545,-0.3503,-0.3503,-0.3504,-0.3504,-0.3394,-0.3389,-0.3384,-0.3344,0,0,-0.3369,-0.3367,0,0,0,0,0,0,0,0,-0.375,-0.3738,-0.3629,-0.3625,-0.362,-0.354,-0.3567,-0.3477,-0.3503,-0.3547,-0.3504,-0.3505,-0.344,-0.3432,-0.341,-0.3338,-0.3333,-0.3368,-0.3365,-0.3363,-0.3362,0,0,0,0,0,0,0,-0.3756,-0.3743,-0.3615,-0.3628,-0.3622,-0.3611,-0.3599,-0.355,-0.3492,-0.3543,-0.3539,-0.3527,-0.3438,-0.3415,-0.3407,-0.3332,-0.3368,-0.3364,-0.3361,-0.3359,-0.3219,-0.3218,0,0,0,0,0,0,-0.3768,-0.3748,-0.3619,-0.3612,-0.3687,-0.3607,-0.3594,-0.3565,-0.3493,-0.3482,-0.3526,-0.3525,-0.3423,-0.3413,-0.3403,-0.3348,-0.3363,-0.3359,-0.3356,-0.3219,-0.3219,-0.3218,0,0,0,0,0,0,-0.3772,-0.3757,-0.3623,-0.3679,-0.3661,-0.3604,-0.3572,-0.3563,-0.3539,-0.348,-0.347,-0.3513,-0.3423,-0.341,-0.3358,-0.3344,-0.3356,-0.3352,-0.322,-0.3219,-0.3218,-0.3241,0,0,0,0,0,0,-0.3777,-0.3759,-0.3743,-0.3679,-0.3658,-0.3581,-0.3571,-0.356,-0.3531,-0.3528,-0.3465,-0.3455,-0.3422,-0.3365,-0.3353,-0.3337,-0.3348,-0.3221,-0.322,-0.3218,-0.3241,-0.3241,-0.3241,0,0,0,0,0,-0.3784,-0.3755,-0.3743,-0.3727,-0.3637,-0.358,-0.3568,-0.353,-0.353,-0.3513,-0.3475,-0.3457,-0.3348,-0.336,-0.3346,-0.3329,-0.3222,-0.322,-0.3219,-0.3242,-0.3241,-0.3241,0,0,0,0,0,0,-0.382,-0.3746,-0.3731,-0.3681,-0.3637,-0.3573,-0.3551,-0.3531,-0.3487,-0.3486,-0.3442,-0.3428,-0.3379,-0.3349,-0.3365,-0.3285,-0.3284,-0.3279,-0.3306,-0.3305,-0.3305,-0.3312,-0.3344,0,0,0,0,0,-0.3822,-0.3782,-0.3719,-0.3681,-0.3659,-0.3609,-0.3582,-0.3557,-0.351,-0.3491,-0.3449,-0.3404,-0.3359,-0.3331,-0.3286,-0.3237,-0.3222,-0.3218,-0.3218,-0.3218,-0.3214,-0.3183,-0.318,-0.3212,-0.3212,-0.3212,0,0,-0.3826,-0.3781,-0.3758,-0.3687,-0.3649,-0.3608,-0.3593,-0.3551,-0.3519,-0.3485,-0.3432,-0.34,-0.3347,-0.3295,-0.3271,-0.3268,-0.3201,-0.3215,-0.3216,-0.3212,-0.3181,-0.3178,-0.3175,-0.3211,-0.3211,-0.3211,0,0,-0.3812,-0.3774,-0.3737,-0.3699,-0.3642,-0.3609,-0.36,-0.3538,-0.3515,-0.3462,-0.3434,-0.3396,-0.332,-0.3282,-0.3254,-0.3222,-0.3204,-0.3209,-0.3207,-0.3178,-0.3175,-0.3172,-0.3159,-0.3155,-0.3206,-0.3206,-0.3206,0,-0.3824,-0.376,-0.372,-0.3677,-0.3646,-0.3612,-0.3573,-0.3539,-0.3471,-0.345,-0.3448,-0.3351,-0.3313,-0.3251,-0.3243,-0.3221,-0.3209,-0.3216,-0.3179,-0.3176,-0.3173,-0.316,-0.3155,-0.3207,-0.3207,-0.3207,-0.3207,0,-0.3777,-0.3733,-0.3709,-0.3643,-0.3609,-0.3569,-0.3522,-0.3492,-0.3469,-0.3436,-0.3381,-0.3334,-0.3278,-0.3262,-0.324,-0.3196,-0.3196,-0.3187,-0.3185,-0.3171,-0.3158,-0.3153,-0.3208,-0.3208,-0.3208,-0.3207,0,0,-0.3784,-0.3694,-0.3686,-0.3654,-0.3588,-0.3553,-0.351,-0.3455,-0.3429,-0.3384,-0.3346,-0.3281,-0.3272,-0.3239,-0.3212,-0.3187,-0.3162,-0.318,-0.3178,-0.3177,-0.3108,-0.3114,-0.3109,-0.3149,-0.3148,-0.3148,-0.3112,0,-0.3759,-0.3681,-0.3642,-0.3581,-0.3538,-0.3504,-0.3466,-0.3422,-0.3389,-0.3347,-0.3311,-0.3265,-0.3258,-0.3237,-0.321,-0.3171,-0.3147,-0.3173,-0.3113,-0.3111,-0.3126,-0.3102,-0.3109,-0.3078,-0.3107,-0.3106,-0.3105,0,-0.3721,-0.3673,-0.3607,-0.3543,-0.3524,-0.3491,-0.3435,-0.3397,-0.3345,-0.3322,-0.3284,-0.3258,-0.321,-0.3212,-0.3146,-0.3164,-0.3137,-0.3114,-0.3112,-0.3103,-0.3106,-0.3092,-0.3067,-0.3062,-0.3097,-0.3098,-0.3098,0,-0.373,-0.365,-0.3598,-0.3573,-0.3498,-0.3475,-0.3443,-0.3391,-0.3359,-0.3311,-0.3289,-0.3237,-0.3208,-0.3168,-0.3127,-0.3132,-0.3063,-0.3063,-0.3042,-0.3043,-0.3029,-0.303,-0.2997,-0.3014,-0.3014,-0.3015,-0.3015,0,-0.3706,-0.3667,-0.3601,-0.357,-0.3524,-0.3479,-0.3435,-0.34,-0.3353,-0.3314,-0.3282,-0.3246,-0.3195,-0.3152,-0.312,-0.3069,-0.3057,-0.3036,-0.3028,-0.3038,-0.304,-0.3019,-0.3019,-0.3013,-0.3013,-0.3014,-0.3014,0,-0.3709,-0.3664,-0.3605,-0.3538,-0.352,-0.3489,-0.3431,-0.3399,-0.3364,-0.3314,-0.33,-0.3244,-0.3192,-0.3147,-0.3079,-0.3057,-0.3003,-0.2995,-0.3021,-0.3016,-0.2997,-0.2999,-0.2949,-0.2939,-0.2964,-0.2964,-0.2964,0,-0.3696,-0.3665,-0.3593,-0.3564,-0.3531,-0.3485,-0.3452,-0.3406,-0.3373,-0.3309,-0.3284,-0.3229,-0.3183,-0.31,-0.3054,-0.3001,-0.2989,-0.2975,-0.2981,-0.2991,-0.2986,-0.2988,-0.2983,-0.2974,-0.2974,-0.2974,-0.2974,0,-0.3678,-0.3656,-0.3609,-0.3553,-0.3514,-0.3468,-0.3422,-0.34,-0.3345,-0.3309,-0.3254,-0.3218,-0.3147,-0.3092,-0.3033,-0.2999,-0.2977,-0.2973,-0.2965,-0.2974,-0.299,-0.2979,-0.3018,-0.2974,-0.2974,-0.2974,-0.2974,-0.2974,-0.3671,-0.364,-0.3584,-0.3532,-0.3492,-0.3448,-0.3413,-0.3372,-0.3326,-0.3263,-0.3239,-0.3183,-0.3129,-0.3047,-0.3013,-0.2968,-0.2965,-0.2954,-0.2951,-0.2949,-0.2949,-0.2998,-0.2957,-0.2957,-0.2957,-0.2957,-0.2957,0,-0.365,-0.3611,-0.3564,-0.3498,-0.3456,-0.3438,-0.3385,-0.3351,-0.3301,-0.3253,-0.3206,-0.3142,-0.3088,-0.3036,-0.2979,-0.2953,-0.2941,-0.2939,-0.294,-0.2932,-0.2956,-0.2967,-0.2949,-0.2949,-0.2949,-0.2949,-0.2949,-0.2949,-0.3634,-0.3579,-0.355,-0.3475,-0.3437,-0.338,-0.3351,-0.331,-0.327,-0.3199,-0.3153,-0.3119,-0.3069,-0.3007,-0.2956,-0.2942,-0.2922,-0.2923,-0.2906,-0.2929,-0.2931,-0.2932,-0.2942,-0.2919,-0.2919,-0.2885,-0.2885,-0.2885]},{"header":{"parameterUnit":"m.s-1","parameterCategory":1,"la1":30.2991,"la2":30.254,"lo1":-89.0895,"lo2":-89.0444,"dy":0.0017,"dx":0.0017,"nx":28,"ny":28,"refTime":"2024-11-28T03:00:00:Z","depth":0,"parameterNumber":3,"parameterNumberName":"V-component_of_WINDS"},"data":[0,0,0,0,0,0,0,0,0,0,0,0,0,0,0,0,0,0,0,0,0,0,0,0,0,0,0,0,0,0,0,0,0,0,0,0,0,0,0,0,0,0,0,0,0,0,0,0,0,0,0,0,0,0,0,0,0,0,3.7878,3.7878,0,3.7918,3.7918,3.7918,3.7909,3.7908,3.7907,3.7906,3.7943,3.7945,3.7946,0,0,0,0,0,0,0,0,0,0,0,0,0,3.7792,3.7794,3.7878,3.7878,3.7879,3.7917,3.7918,3.7919,3.7909,3.7908,3.7907,3.7906,3.7943,3.7945,3.7947,0,0,0,0,0,0,0,0,0,0,0,0,0,3.783,3.7794,3.7878,3.7879,3.7879,3.7917,3.7918,3.7919,3.7909,3.7908,3.7907,3.7905,3.7942,3.7944,3.7947,3.7985,0,0,3.7955,3.7956,0,0,0,0,0,0,0,0,3.7828,3.7833,3.7878,3.7879,3.7879,3.7907,3.7901,3.7941,3.7909,3.7897,3.7906,3.7905,3.7932,3.7935,3.7945,3.7987,3.7989,3.7955,3.7956,3.7957,3.7958,0,0,0,0,0,0,0,3.7825,3.7831,3.7893,3.7879,3.788,3.7877,3.7881,3.7909,3.792,3.7898,3.7898,3.7903,3.7932,3.7942,3.7946,3.7989,3.7955,3.7957,3.7959,3.796,3.8068,3.807,0,0,0,0,0,0,3.7823,3.7829,3.7892,3.7895,3.785,3.7879,3.7884,3.7899,3.792,3.7922,3.7904,3.7902,3.7939,3.7943,3.7947,3.7996,3.7957,3.796,3.7961,3.8067,3.8069,3.807,0,0,0,0,0,0,3.7821,3.7828,3.7891,3.7862,3.787,3.7882,3.7899,3.7901,3.7911,3.7924,3.7926,3.7913,3.7938,3.7943,3.7977,3.7997,3.7961,3.7963,3.8065,3.8067,3.8069,3.8093,0,0,0,0,0,0,3.7818,3.7828,3.7843,3.7862,3.7871,3.792,3.79,3.7902,3.7916,3.7914,3.7933,3.7935,3.7937,3.7973,3.7979,3.8,3.7965,3.8064,3.8066,3.8069,3.809,3.8095,3.81,0,0,0,0,0,3.7815,3.7846,3.7843,3.7851,3.789,3.7922,3.7927,3.793,3.7918,3.7933,3.7942,3.7934,3.7994,3.7977,3.7984,3.8005,3.8062,3.8065,3.8068,3.8088,3.8094,3.8099,0,0,0,0,0,0,3.7826,3.7848,3.7846,3.7884,3.7901,3.792,3.7939,3.7936,3.7956,3.7953,3.7955,3.796,3.7995,3.8003,3.7984,3.8045,3.8026,3.8031,3.8039,3.8045,3.8049,3.8047,3.7967,0,0,0,0,0,3.7833,3.7858,3.7875,3.7907,3.7917,3.7927,3.794,3.7942,3.7959,3.7966,3.7977,3.7993,3.8016,3.803,3.8051,3.8091,3.8096,3.8109,3.8114,3.8118,3.8122,3.8146,3.8153,3.808,3.808,3.808,0,0,3.7847,3.7863,3.7878,3.791,3.7924,3.7949,3.7932,3.7959,3.7978,3.7969,3.8003,3.8012,3.803,3.8068,3.8085,3.8075,3.8144,3.8122,3.8125,3.8127,3.815,3.8157,3.8163,3.8082,3.8082,3.8081,0,0,3.7887,3.7901,3.7931,3.7945,3.7967,3.7974,3.7981,3.8001,3.8007,3.8041,3.8036,3.8058,3.8096,3.8111,3.8123,3.8171,3.8166,3.8178,3.8203,3.8226,3.8232,3.8237,3.8257,3.8264,3.8182,3.8182,3.8182,0,3.7902,3.7941,3.7946,3.7974,3.7989,3.7985,3.8016,3.8029,3.8056,3.8066,3.8056,3.8106,3.8117,3.816,3.8172,3.8181,3.8191,3.8176,3.8231,3.8236,3.8241,3.826,3.8267,3.8183,3.8183,3.8183,3.8183,0,3.796,3.7987,3.8008,3.8037,3.8054,3.8083,3.8093,3.8109,3.811,3.8118,3.8154,3.8168,3.8194,3.8203,3.8203,3.8247,3.8241,3.8231,3.8212,3.825,3.8267,3.8274,3.8185,3.8185,3.8184,3.8184,0,0,3.8006,3.804,3.8048,3.8062,3.8087,3.8108,3.8137,3.8164,3.818,3.8199,3.8224,3.8258,3.825,3.8264,3.8265,3.8286,3.8326,3.8274,3.8274,3.8285,3.8378,3.8387,3.8395,3.8323,3.8324,3.8325,3.8377,0,3.805,3.8104,3.8111,3.8159,3.8185,3.8182,3.8208,3.8226,3.8235,3.8258,3.8267,3.8292,3.8278,3.8287,3.8307,3.8317,3.8345,3.8313,3.8347,3.8348,3.8345,3.8404,3.8413,3.8461,3.8384,3.8385,3.8386,0,3.8108,3.8132,3.8184,3.8208,3.8219,3.8243,3.827,3.8291,3.8312,3.8317,3.8335,3.8334,3.8365,3.8344,3.8387,3.8366,3.838,3.8387,3.8389,3.8393,3.8371,3.8412,3.8476,3.8485,3.8396,3.8396,3.8395,0,3.8141,3.8185,3.8223,3.8235,3.8263,3.828,3.8293,3.8312,3.8329,3.8352,3.8363,3.8388,3.8402,3.8422,3.8428,3.8412,3.8472,3.8451,3.8478,3.8478,3.8491,3.8491,3.8561,3.8497,3.8497,3.8497,3.8497,0,3.819,3.8222,3.8238,3.8261,3.8298,3.8305,3.834,3.8351,3.837,3.8395,3.8393,3.8416,3.8422,3.8447,3.8452,3.8488,3.8494,3.8499,3.8501,3.8501,3.8501,3.8511,3.8509,3.8499,3.8499,3.8498,3.8498,0,3.8233,3.8244,3.8286,3.831,3.8317,3.8343,3.8364,3.8387,3.8396,3.8428,3.8436,3.845,3.8479,3.8487,3.8521,3.8525,3.8569,3.8565,3.8562,3.8563,3.859,3.8588,3.8671,3.8683,3.8609,3.861,3.8611,0,3.8264,3.829,3.8318,3.8336,3.835,3.8378,3.8397,3.8404,3.8423,3.845,3.847,3.8499,3.8524,3.8571,3.8583,3.861,3.8609,3.8636,3.8613,3.8613,3.8612,3.8611,3.8615,3.8641,3.8642,3.8642,3.8643,0,3.832,3.8326,3.8353,3.8383,3.8405,3.8429,3.8451,3.8465,3.8476,3.8498,3.8529,3.8548,3.8585,3.8615,3.8642,3.8654,3.8651,3.865,3.8658,3.8659,3.8658,3.8662,3.8577,3.8648,3.8648,3.8647,3.8647,3.8647,3.836,3.8384,3.8409,3.844,3.8458,3.848,3.8503,3.8516,3.8543,3.8576,3.8578,3.8612,3.8634,3.8671,3.8685,3.8712,3.8704,3.8714,3.8718,3.8721,3.8725,3.8652,3.8716,3.8716,3.8716,3.8716,3.8716,0,3.8418,3.8435,3.8463,3.8497,3.8521,3.8518,3.8543,3.8563,3.8595,3.8616,3.8641,3.8678,3.8707,3.8723,3.8753,3.8771,3.8771,3.8779,3.8779,3.8782,3.8729,3.872,3.8779,3.8779,3.8779,3.8779,3.8779,3.8779,3.8451,3.8492,3.8501,3.8552,3.8567,3.8603,3.8618,3.8638,3.8656,3.8699,3.8724,3.8735,3.8754,3.8786,3.8813,3.8817,3.8828,3.8838,3.8841,3.8792,3.8785,3.8779,3.8771,3.884,3.884,3.8893,3.8893,3.8893]}]]